Location: Johnson City
(36.3130°N, 82.3540°W)
Time: 03:51:47
(UTC-05:00)

N. Korean satellite - Pass Details

Date: 03 December 2021
Orbit: 447 x 491 km, 97.3° (Epoch: 22 January)

Event Time Altitude Azimuth Distance (km) Brightness Sun altitude
Rises 06:37:16 0° 350° (N) 2,457 9.8 -9.5°
Reaches altitude 10° 06:40:01 10° 325° (NW) 1,576 8.7 -9.0°
Maximum altitude 06:41:54 14° 291° (WNW) 1,330 8.1 -8.6°
Drops below altitude 10° 06:43:46 10° 256° (WSW) 1,569 8.7 -8.3°
Sets 06:46:29 0° 231° (SW) 2,436 9.8 -7.8°
